Date String (YYYY-MM-DD hh:mm:ss) UTC,Instrument flags,Ambient pressure (hPa),Sample flow (lpm),Bypass flow (lpm),Sample temperature (°C),Ambient temperature (°C),ASC tube jacket temperature (°C),LED temperature (°C),Box temperature (°C),Sample RH (%),Span deviation,Mass concentration (μg/m³),Mass concentration (μg/m³),Mass concentration (μg/m³)
DateTimeUTC,F1_M11,P_M11,Q1_M11,Q2_M11,T1_M11,T2_M11,T3_M11,T4_M11,T5_M11,U1_M11,ZSPAN_M11,X2_M11,X0_M11,X1_M11
2022-10-27 23:00:00,,0827.1,5.00,0.00,25.6,24.3,00.0,34.4,27.6,18.2,0000.0,0002.83,0004.58,0002.42
2022-10-27 23:01:00,,0826.8,5.01,0.00,25.6,24.3,00.0,34.4,27.6,17.6,0000.0,0002.84,0004.44,0002.42
2022-10-27 23:02:00,,0826.8,5.02,0.00,25.6,24.4,00.0,34.4,27.6,17.5,0000.0,0002.83,0004.23,0002.39
2022-10-27 23:03:00,,0826.9,4.98,0.00,25.6,24.3,00.0,34.4,27.6,17.1,0000.0,0002.85,0004.30,0002.37
2022-10-27 23:04:00,,0826.9,5.00,0.00,25.6,24.3,00.0,34.4,27.6,16.5,0000.0,0002.78,0004.19,0002.35
2022-10-27 23:05:00,,0826.9,5.00,0.00,25.7,24.4,00.0,34.4,27.6,16.7,0000.0,0002.77,0004.27,0002.32
2022-10-27 23:06:00,,0826.9,4.99,0.00,25.7,24.3,00.0,34.4,27.6,16.3,0000.0,0002.81,0004.41,0002.30
2022-10-27 23:07:00,,0826.9,5.02,0.00,25.7,24.3,00.0,34.4,27.6,16.4,0000.0,0002.77,0004.16,0002.28
2022-10-27 23:08:00,,0826.9,4.99,0.00,25.7,24.3,00.0,34.4,27.6,16.4,0000.0,0002.76,0004.12,0002.27
2022-10-27 23:09:00,,0826.9,5.02,0.00,25.7,24.4,00.0,34.4,27.6,16.4,0000.0,0002.74,0004.05,0002.25
2022-10-27 23:10:00,,0826.9,4.98,0.00,25.7,24.4,00.0,34.4,27.6,16.4,0000.0,0002.73,0004.01,0002.23
2022-10-27 23:11:00,,0826.9,5.00,0.00,25.7,24.4,00.0,34.4,27.6,16.5,0000.0,0002.71,0003.94,0002.21
2022-10-27 23:12:00,,0826.9,4.99,0.00,25.7,24.5,00.0,34.4,27.6,16.4,0000.0,0002.67,0003.85,0002.19
2022-10-27 23:13:00,,0827.0,5.00,0.00,25.7,24.5,00.0,34.4,27.6,16.3,0000.0,0002.64,0003.78,0002.19
2022-10-27 23:14:00,,0826.9,5.00,0.00,25.7,24.5,00.0,34.4,27.7,16.4,0000.0,0002.59,0003.68,0002.18
2022-10-27 23:15:00,,0827.0,5.00,0.00,25.7,24.5,00.0,34.5,27.7,16.8,0000.0,0002.60,0004.05,0002.18
2022-10-27 23:16:00,,0827.0,5.00,0.00,25.7,24.5,00.0,34.5,27.7,16.9,0000.0,0002.61,0004.82,0002.17
2022-10-27 23:17:00,,0826.9,5.00,0.00,25.8,24.5,00.0,34.5,27.7,17.2,0000.0,0002.57,0004.75,0002.17
2022-10-27 23:18:00,,0827.0,5.00,0.00,25.8,24.5,00.0,34.5,27.7,17.0,0000.0,0002.60,0004.94,0002.18
2022-10-27 23:19:00,,0827.3,5.00,0.00,25.8,24.4,00.0,34.5,27.7,17.3,0000.0,0002.63,0005.27,0002.18
2022-10-27 23:20:00,,0826.9,5.00,0.00,25.8,24.4,00.0,34.5,27.7,17.3,0000.0,0002.64,0005.31,0002.19
2022-10-27 23:21:00,,0827.0,5.00,0.00,25.8,24.4,00.0,34.5,27.7,17.1,0000.0,0002.64,0005.33,0002.19
2022-10-27 23:22:00,,0826.9,5.00,0.00,25.8,24.4,00.0,34.5,27.7,17.1,0000.0,0002.62,0005.28,0002.19
2022-10-27 23:23:00,,0827.0,5.00,0.00,25.8,24.3,00.0,34.5,27.7,16.6,0000.0,0002.64,0006.22,0002.19
2022-10-27 23:24:00,,0827.0,4.99,0.00,25.7,24.3,00.0,34.5,27.6,16.7,0000.0,0002.62,0006.33,0002.20
2022-10-27 23:25:00,,0827.0,4.99,0.00,25.7,24.4,00.0,34.5,27.6,16.9,0000.0,0002.62,0006.23,0002.20
2022-10-27 23:26:00,,0827.0,5.01,0.00,25.7,24.3,00.0,34.5,27.6,17.0,0000.0,0002.62,0006.00,0002.21
2022-10-27 23:27:00,,0827.0,5.01,0.00,25.7,24.2,00.0,34.5,27.6,17.2,0000.0,0002.62,0005.07,0002.23
2022-10-27 23:28:00,,0827.0,4.98,0.00,25.7,24.3,00.0,34.5,27.6,17.3,0000.0,0002.60,0004.98,0002.24
2022-10-27 23:29:00,,0827.0,5.00,0.00,25.7,24.3,00.0,34.5,27.6,17.2,0000.0,0002.57,0004.82,0002.25
2022-10-27 23:30:00,,0827.0,5.00,0.00,25.7,24.2,00.0,34.5,27.6,17.2,0000.0,0002.61,0004.59,0002.25
2022-10-27 23:31:00,,0827.1,5.02,0.00,25.7,24.2,00.0,34.5,27.6,17.4,0000.0,0002.62,0005.23,0002.27
2022-10-27 23:32:00,,0827.0,5.00,0.00,25.7,24.2,00.0,34.5,27.6,17.8,0000.0,0002.63,0006.14,0002.30
2022-10-27 23:33:00,,0826.9,4.99,0.00,25.7,24.2,00.0,34.5,27.6,18.0,0000.0,0002.68,0006.49,0002.33
2022-10-27 23:34:00,,0827.0,4.99,0.00,25.7,24.1,00.0,34.5,27.5,18.1,0000.0,0002.71,0005.82,0002.37
2022-10-27 23:35:00,,0827.1,5.00,0.00,25.7,24.0,00.0,34.5,27.5,18.1,0000.0,0002.80,0005.68,0002.42
2022-10-27 23:36:00,,0827.1,5.00,0.00,25.6,24.0,00.0,34.5,27.5,18.2,0000.0,0002.89,0005.89,0002.48
2022-10-27 23:37:00,,0827.0,5.00,0.00,25.6,23.9,00.0,34.5,27.5,18.2,0000.0,0002.94,0006.05,0002.52
2022-10-27 23:38:00,,0827.0,4.99,0.00,25.6,23.9,00.0,34.5,27.4,18.3,0000.0,0002.99,0006.41,0002.54
2022-10-27 23:39:00,,0827.4,5.00,0.00,25.6,23.9,00.0,34.4,27.4,18.3,0000.0,0003.04,0006.48,0002.58
2022-10-27 23:40:00,,0827.5,5.00,0.00,25.6,23.8,00.0,34.4,27.4,18.2,0000.0,0003.11,0006.59,0002.61
2022-10-27 23:41:00,,0827.3,5.02,0.00,25.6,23.8,00.0,34.4,27.4,18.3,0000.0,0003.12,0006.58,0002.65
2022-10-27 23:42:00,,0827.2,4.99,0.00,25.5,23.8,00.0,34.4,27.3,18.3,0000.0,0003.14,0006.37,0002.68
2022-10-27 23:43:00,,0827.0,5.00,0.00,25.5,23.8,00.0,34.4,27.3,18.3,0000.0,0003.15,0007.67,0002.70
2022-10-27 23:44:00,,0827.0,5.00,0.00,25.5,23.8,00.0,34.4,27.3,18.4,0000.0,0003.17,0008.17,0002.72
2022-10-27 23:45:00,,0827.0,5.00,0.00,25.5,23.8,00.0,34.3,27.3,18.3,0000.0,0003.18,0008.22,0002.73
2022-10-27 23:46:00,,0827.0,5.00,0.00,25.5,23.7,00.0,34.3,27.3,18.4,0000.0,0003.18,0008.21,0002.73
2022-10-27 23:47:00,,0827.0,5.00,0.00,25.5,23.7,00.0,34.3,27.3,18.6,0000.0,0003.15,0008.13,0002.72
2022-10-27 23:48:00,,0827.0,5.00,0.00,25.4,23.7,00.0,34.3,27.2,18.6,0000.0,0003.15,0008.09,0002.71
2022-10-27 23:49:00,,0827.0,5.00,0.00,25.4,23.6,00.0,34.3,27.2,18.5,0000.0,0003.16,0007.97,0002.73
2022-10-27 23:50:00,,0827.0,5.00,0.00,25.4,23.6,00.0,34.3,27.2,18.5,0000.0,0003.19,0008.10,0002.74
2022-10-27 23:51:00,,0827.0,5.00,0.00,25.4,23.6,00.0,34.3,27.2,18.6,0000.0,0003.18,0008.09,0002.76
2022-10-27 23:52:00,,0827.1,5.01,0.00,25.4,23.6,00.0,34.3,27.2,18.7,0000.0,0003.17,0008.06,0002.76
2022-10-27 23:53:00,,0827.3,5.00,0.00,25.4,23.6,00.0,34.3,27.2,18.7,0000.0,0003.16,0007.97,0002.76
2022-10-27 23:54:00,,0827.5,5.01,0.00,25.4,23.6,00.0,34.2,27.2,18.8,0000.0,0003.15,0006.05,0002.75
2022-10-27 23:55:00,,0827.4,5.00,0.00,25.4,23.6,00.0,34.2,27.2,18.8,0000.0,0003.13,0004.59,0002.75
2022-10-27 23:56:00,,0827.1,5.00,0.00,25.4,23.7,00.0,34.2,27.2,18.9,0000.0,0003.13,0004.53,0002.75
2022-10-27 23:57:00,,0827.1,5.00,0.00,25.4,23.7,00.0,34.2,27.2,18.9,0000.0,0003.12,0004.47,0002.76
2022-10-27 23:58:00,,0827.2,5.00,0.00,25.3,23.7,00.0,34.2,27.2,18.9,0000.0,0003.15,0004.58,0002.77
2022-10-27 23:59:00,,0827.2,5.00,0.00,25.3,23.7,00.0,34.2,27.2,19.0,0000.0,0003.17,0004.66,0002.79
